Location: Hohe Wand Kleine Kanzel
(47.8330°N, 16.0170°E)
Time: 16:21:23
(UTC+02:00)

Courier 1B Rocket - Pass Details

Date: 08 August 2021
Orbit: 920 x 1202 km, 28.3° (Epoch: 23 September)

Event Time Altitude Azimuth Distance (km) Brightness Sun altitude
Rises 22:56:33 0° 210° (SSW) 4,049 8.0 -20.4°
Enters shadow 22:56:41 - 209° (SSW) 4,015 7.9 -20.5°
Reaches altitude 10° 23:02:29 10° 175° (S) 3,030 - -21.0°
Maximum altitude 23:03:56 11° 164° (SSE) 2,965 - -21.1°
Drops below altitude 10° 23:05:24 10° 152° (SSE) 2,995 - -21.2°
Sets 23:11:04 0° 117° (ESE) 3,872 - -21.7°
